Change the Weather History Date:

Wednesday, November 9, 2011

  Actual Average Record
Temperature  
Mean Temperature 38 °F -  
Max Temperature 44 °F 43 °F 57 °F (1976)
Min Temperature 33 °F 35 °F 18 °F (1985)
Degree Days  
Heating Degree Days 26    
Moisture  
Dew Point 33 °F    
Average Humidity 84    
Maximum Humidity 93    
Minimum Humidity 60    
Precipitation  
Precipitation 0.00 in - - ()
Sea Level Pressure  
Sea Level Pressure 29.81 in    
Wind  
Wind Speed 4 mph (East)    
Max Wind Speed 10 mph    
Max Gust Speed -    
Visibility 10 miles    
Events      
Averages and records for this station are not official NWS values.
T = Trace of Precipitation, MM = Missing Value Source: NWS Daily Summary

Daily Weather History Graph

Daily Weather History Graph

Search for Another Location

Airport or City:

Trip Planner

Search our weather history database for the weather conditions in past years. The results will help you decide how hot, cold, wet, or windy it might be!

Date:

Astronomy

Nov. 09, 2011 Rise Set
Actual Time 7:29 AM AKST 3:59 PM AKST
Civil Twilight 6:47 AM AKST 4:42 PM AKST
Nautical Twilight 6:00 AM AKST 5:28 PM AKST
Astronomical Twilight 5:16 AM AKST 6:13 PM AKST
Moon 3:11 PM AKST (11/9) 6:33 AM AKST (11/9)
Length of Visible Light 9h 55m
Length of Day
8h 30m
Waxing Gibbous, 99% of the Moon is Illuminated
Nov 9
Waxing Gibbous
Nov 10
Full
Nov 18
Last Quarter
Nov 24
New
Dec 2
First Quarter

Hourly Weather History & Observations

Time (AKST) Temp. Windchill Dew Point Humidity Pressure Visibility Wind Dir Wind Speed Gust Speed Precip Events Conditions
12:53 AM 44.1 °F 40.8 °F 30.9 °F 60% 29.92 in 10.0 mi ESE 5.8 mph - N/A   Overcast
1:53 AM 43.0 °F 39.5 °F 35.1 °F 74% 29.91 in 10.0 mi WNW 5.8 mph - N/A   Mostly Cloudy
3:53 AM 37.9 °F - 33.1 °F 83% 29.89 in 10.0 mi Calm Calm - N/A   Scattered Clouds
4:53 AM 39.0 °F 34.8 °F 35.1 °F 86% 29.87 in 10.0 mi NNW 5.8 mph - N/A   Scattered Clouds
5:53 AM 37.0 °F - 33.1 °F 86% 29.85 in 10.0 mi Calm Calm - N/A   Scattered Clouds
6:53 AM 34.0 °F 31.0 °F 30.9 °F 89% 29.84 in 10.0 mi East 3.5 mph - N/A   Partly Cloudy
7:53 AM 35.1 °F 32.2 °F 32.0 °F 89% 29.81 in 10.0 mi East 3.5 mph - N/A   Partly Cloudy
8:53 AM 39.0 °F 32.3 °F 35.1 °F 86% 29.82 in 10.0 mi NNW 10.4 mph - N/A   Scattered Clouds
9:53 AM 39.9 °F 37.8 °F 35.1 °F 83% 29.83 in 10.0 mi ESE 3.5 mph - N/A   Mostly Cloudy
10:53 AM 41.0 °F - 36.0 °F 82% 29.81 in 10.0 mi Calm Calm - N/A   Mostly Cloudy
11:53 AM 41.0 °F - 35.1 °F 79% 29.80 in 10.0 mi Calm Calm - N/A   Scattered Clouds
12:53 PM 42.1 °F 39.2 °F 34.0 °F 73% 29.77 in 10.0 mi WNW 4.6 mph - N/A   Overcast
1:53 PM 43.0 °F 37.7 °F 36.0 °F 76% 29.77 in 10.0 mi NW 9.2 mph - N/A   Clear
2:53 PM 43.0 °F 38.2 °F 35.1 °F 74% 29.77 in 10.0 mi NNW 8.1 mph - N/A   Clear
3:53 PM 41.0 °F 38.0 °F 34.0 °F 76% 29.77 in 10.0 mi North 4.6 mph - N/A   Clear
4:53 PM 37.9 °F - 34.0 °F 86% 29.77 in 10.0 mi Calm Calm - N/A   Clear
5:53 PM 36.0 °F - 33.1 °F 89% 29.77 in 10.0 mi Calm Calm - N/A   Clear
6:53 PM 34.0 °F - 32.0 °F 92% 29.78 in 10.0 mi Calm Calm - N/A   Clear
7:53 PM 34.0 °F 29.8 °F 30.9 °F 89% 29.77 in 10.0 mi East 4.6 mph - N/A   Clear
8:53 PM 34.0 °F 29.8 °F 30.9 °F 89% 29.78 in 10.0 mi ESE 4.6 mph - N/A   Scattered Clouds
9:00 PM 33.8 °F 28.6 °F 32.0 °F 93% 29.78 in 10.0 mi East 5.8 mph - N/A   Mostly Cloudy
9:07 PM 33.8 °F 28.6 °F 32.0 °F 93% 29.78 in 10.0 mi East 5.8 mph - N/A   Scattered Clouds
9:53 PM 35.1 °F 30.1 °F 32.0 °F 89% 29.78 in 10.0 mi ESE 5.8 mph - N/A   Scattered Clouds
10:00 PM 35.6 °F 30.7 °F 32.0 °F 87% 29.78 in 10.0 mi ESE 5.8 mph - N/A   Overcast
10:53 PM 35.1 °F 29.3 °F 32.0 °F 89% 29.78 in 10.0 mi East 6.9 mph - N/A   Overcast
11:15 PM 35.6 °F 29.9 °F 33.8 °F 93% 29.79 in 10.0 mi East 6.9 mph - N/A   Overcast
11:24 PM 37.4 °F 32.1 °F 33.8 °F 87% 29.79 in 10.0 mi ESE 6.9 mph - N/A   Overcast
11:53 PM 37.4 °F 31.4 °F 33.8 °F 87% 29.79 in 10.0 mi ESE 8.1 mph - N/A   Overcast